West Lafayette, IN

6:35 PM EST on February 24, 2017 (GMT -0500)
Purdue Univ

Weather History for KLAF - June, 2013

Change the Weather History Date:

Friday, June 7, 2013

  Actual Average Record
Temperature  
Mean Temperature 64 °F 69 °F  
Max Temperature 74 °F 80 °F 95 °F (1988)
Min Temperature 54 °F 58 °F 43 °F (1977)
Degree Days  
Heating Degree Days 1 1  
Month to date heating degree days 18 11  
Since 1 June heating degree days 18 11  
Since 1 July heating degree days 5911 5661  
Cooling Degree Days 0 5  
Month to date cooling degree days 8 33  
Year to date cooling degree days 109 110  
Since 1 June cooling degree days 8 33  
Growing Degree Days 16 (Base 50)    
Moisture  
Dew Point 55 °F    
Average Humidity 68    
Maximum Humidity 87    
Minimum Humidity 49    
Precipitation  
Precipitation T in 0.14 in 1.81 in (2015)
Month to date precipitation 0.44 1.03  
Year to date precipitation 19.06 15.05  
Sea Level Pressure  
Sea Level Pressure 29.86 in    
Wind  
Wind Speed 4 mph (NNE)    
Max Wind Speed 14 mph    
Max Gust Speed 16 mph    
Visibility 9 miles    
Events Rain    
T = Trace of Precipitation, MM = Missing Value Source: NWS Daily Summary

Daily Weather History Graph

Daily Weather History Graph

Search for Another Location

Airport or City:

Trip Planner

Search our weather history database for the weather conditions in past years. The results will help you decide how hot, cold, wet, or windy it might be!

Date:

Astronomy

Jun. 07, 2013 Rise Set
Actual Time 6:17 AM EDT 9:15 PM EDT
Civil Twilight 5:44 AM EDT 9:48 PM EDT
Nautical Twilight 5:03 AM EDT 10:30 PM EDT
Astronomical Twilight 4:15 AM EDT 11:18 PM EDT
Moon 5:40 AM EDT (6/7) 8:29 PM EDT (6/7)
Length of Visible Light 16h 03m
Length of Day
14h 58m
Waning Crescent, 1% of the Moon is Illuminated
Jun 7
Waning Crescent
Jun 8
New
Jun 16
First Quarter
Jun 23
Full
Jun 30
Last Quarter

Hourly Weather History & Observations

Time (EDT) Temp. Dew Point Humidity Pressure Visibility Wind Dir Wind Speed Gust Speed Precip Events Conditions
12:54 AM 62.1 °F 54.0 °F 75% 29.85 in 10.0 mi NNE 6.9 mph - 0.00 in Rain Light Rain
1:54 AM 60.1 °F 54.0 °F 80% 29.85 in 10.0 mi North 4.6 mph - 0.00 in   Overcast
2:54 AM 60.1 °F 54.0 °F 80% 29.84 in 10.0 mi North 4.6 mph - N/A   Overcast
3:54 AM 59.0 °F 54.0 °F 83% 29.84 in 10.0 mi NE 4.6 mph - N/A   Overcast
4:54 AM 59.0 °F 54.0 °F 83% 29.83 in 10.0 mi NNE 3.5 mph - N/A   Partly Cloudy
5:54 AM 59.0 °F 55.0 °F 87% 29.84 in 10.0 mi NNE 3.5 mph - N/A   Overcast
6:54 AM 59.0 °F 55.0 °F 87% 29.85 in 8.0 mi NE 4.6 mph - N/A   Overcast
7:54 AM 61.0 °F 55.9 °F 83% 29.86 in 6.0 mi NE 3.5 mph - N/A   Haze
8:19 AM 62.6 °F 57.2 °F 82% 29.86 in 6.0 mi NE 6.9 mph - N/A   Haze
8:54 AM 63.0 °F 55.9 °F 78% 29.87 in 6.0 mi NE 8.1 mph - N/A   Haze
9:54 AM 64.9 °F 55.0 °F 70% 29.87 in 8.0 mi NE 8.1 mph - N/A   Clear
10:38 AM 66.2 °F 55.4 °F 68% 29.88 in 8.0 mi NE 8.1 mph - N/A   Mostly Cloudy
10:54 AM 66.9 °F 55.9 °F 68% 29.87 in 8.0 mi NE 8.1 mph - N/A   Mostly Cloudy
11:44 AM 68.0 °F 57.2 °F 68% 29.89 in 8.0 mi NNE 6.9 mph - N/A   Mostly Cloudy
11:54 AM 69.1 °F 57.0 °F 65% 29.88 in 8.0 mi Variable 6.9 mph - N/A   Mostly Cloudy
12:54 PM 70.0 °F 55.9 °F 61% 29.88 in 9.0 mi North 4.6 mph - N/A   Mostly Cloudy
1:54 PM 71.1 °F 55.9 °F 59% 29.87 in 10.0 mi North 5.8 mph - N/A   Overcast
2:54 PM 73.0 °F 55.9 °F 55% 29.86 in 10.0 mi Variable 5.8 mph - N/A   Mostly Cloudy
3:54 PM 73.0 °F 55.0 °F 53% 29.85 in 10.0 mi NNE 4.6 mph - N/A   Overcast
4:54 PM 73.0 °F 54.0 °F 51% 29.84 in 10.0 mi Variable 3.5 mph - N/A   Overcast
5:54 PM 71.1 °F 55.9 °F 59% 29.84 in 10.0 mi Calm Calm - N/A   Overcast
6:54 PM 71.1 °F 54.0 °F 55% 29.84 in 10.0 mi Calm Calm - N/A   Overcast
7:54 PM 68.0 °F 57.9 °F 70% 29.85 in 9.0 mi Calm Calm - N/A   Overcast
8:54 PM 68.0 °F 59.0 °F 73% 29.87 in 8.0 mi Calm Calm - N/A   Overcast
9:54 PM 64.9 °F 52.0 °F 63% 29.88 in 10.0 mi North 9.2 mph - N/A   Overcast
10:54 PM 61.0 °F 48.9 °F 64% 29.90 in 10.0 mi North 8.1 mph - N/A   Clear
11:54 PM 59.0 °F 46.9 °F 64% 29.91 in 10.0 mi Calm Calm - N/A   Clear